Meteo Giornale » Osservazioni meteo Italia » Gioia Del Colle

ore: 00:55 - Osservazioni Meteo Gioia Del Colle
Lat. 40° 46' N Lon. 16° 56' E Alt. 345 metri s.l.m.

sereno Europe/Rome

13 °C

Sereno

Temp. 24 Ore

13 °C

19 °C

Ovest/Nord-Ovest

24 Km/h

Dew point 11 °C

Umidità 87 %

Visibilità  10 Km

Il sole sorge alle ore 06:38

Il sole tramonta alle ore 18:52

Data e Ora Cielo e Fenomeni T °C DP °C Um. % Pres. hPa Vis. km Vento km/h
Oggi h: 00:55 sereno Sereno 13 11 87 1016 10 O/NO 24
Ieri h: 22:55 sereno Sereno 13 11 87 1015 10 O/NO 18.5
Ieri h: 21:55 poco_nuvoloso Poco Nuvoloso 13 11 87 1015 10 O 14.8
Ieri h: 20:55 poco_nuvoloso Poco Nuvoloso 14 11 82 1014 10 O/NO 20.3
Ieri h: 19:55 poco_nuvoloso Poco Nuvoloso 15 10 72 1014 10 NO 18.5
Ieri h: 18:55 poco_nuvoloso Poco Nuvoloso 16 9 63 1013 10 O/NO 20.3
Ieri h: 17:55 poco_nuvoloso Poco Nuvoloso 17 10 63 1012 10 N/NO 20.3
Ieri h: 16:55 nuvoloso Nuvoloso 17 9 59 1012 10 NO 20.3
Ieri h: 15:55 nuvoloso Nuvoloso 19 9 52 1011 10 N/NO 18.5
Ieri h: 14:55 poco_nuvoloso Poco Nuvoloso 18 11 63 1011 10 N/NO 18.5
Ieri h: 12:55 nuvoloso Nuvoloso 18 9 55 1011 10 O/SO 18.5
Ieri h: 11:55 nuvoloso Nuvoloso 19 8 48 1011 10 O 18.5
Ieri h: 09:55 nuvoloso Nuvoloso 17 10 63 1011 10 S 9.3
Ieri h: 08:55 sereno Sereno 16 11 72 1010 10 N 5.5
Ieri h: 07:55 sereno Sereno 15 11 76 1010 10 N 1.8
Ieri h: 06:55 sereno Sereno 14 11 82 1011 10 N 3.7
Ieri h: 05:55 sereno Sereno 14 11 82 1011 10 O 7.4
Ieri h: 04:55 sereno Sereno 15 10 72 1010 10 O 25.9
Ieri h: 03:55 sereno Sereno 15 8 62 1010 10 S 9.3
Ieri h: 02:55 sereno Sereno 13 9 76 1010 10 S/SO 9.3
Ieri h: 01:55 sereno Sereno 14 8 67 1010 10 S/SO 11.1